Location: Izdebno
(52.6670°N, 16.2170°E)
Time: 05:11:37
(UTC+02:00)

A-11 Canister half - Pass Details

Date: 10 February 2023
Orbit: 1526 x 1682 km, 47.3° (Epoch: 25 March)

Event Time Altitude Azimuth Distance (km) Brightness Sun altitude
Rises 09:32:54 0° 283° (WNW) 4,686 11.1 15.0°
Reaches altitude 10° 09:36:10 10° 276° (W) 3,711 10.7 15.3°
Maximum altitude 09:44:33 39° 212° (SSW) 2,187 10.3 16.1°
Drops below altitude 10° 09:53:07 10° 149° (SSE) 3,789 13.8 16.8°
Sets 09:56:30 0° 142° (SE) 4,795 13.4 17.1°
